Flag Weather past 2 weeks in Stralsund, Mecklenburg-Western Pomerania, Germany

Now
43 °F

Fog.


Feels Like: 39 °F
Forecast: 42 / 48 °F
Wind: 7 mph from South

Location: Greifswald

Current Time: Nov 24, 2014 at 5:17:37 AM

Latest Report: Nov 24, 2014 at 3:00 AM


Visibility: 4 mi

Pressure: 30.03 "Hg

Humidity: 84%

Dew point: 38 °F

Location of StralsundLocation

Historic Weather in Stralsund — Graph

°F

Stralsund temperature yesterday

Maximum temperature yesterday: 44 °F (at 2:00 PM)
Minimum temperature yesterday: 40 °F (at 6:00 AM)
Average temperature yesterday: 42 °F

Past Weeks' High & Low Weather Summary

 TemperatureHumidityPressure
High53 °F (Nov 12, 1:00 PM)100% (Nov 9, 5:00 AM)30.36 "Hg (Nov 9, 5:00 AM)
Low33 °F (Nov 22, 9:00 AM)78% (Nov 9, 2:00 PM)29.68 "Hg (Nov 16, 3:00 PM)
Average45 °F92%30.02 "Hg
* Reported Nov 9 3:00 AM — Nov 24 3:00 AM, Stralsund, Weather by CustomWeather, © 2014

Note: Actual official high and low records may vary slightly from our data, if they occured in-between our weather recording intervals... More about our weather records

Advertising

Stralsund weather history for previous 24 hours

 ConditionsComfort  
Time TempWeatherWind HumidityBarometerVisibility
3:00 AM
Nov 24
43 °FFog.7 mph84%30.03 "Hg4 mi
2:00 AM43 °FFog.7 mph84%30.04 "Hg3 mi
1:00 AM43 °FFog.6 mph85%30.07 "Hg3 mi
12:00 AM43 °FFog.6 mph84%30.09 "Hg3 mi
11:00 PM
Nov 23
43 °FFog.6 mph84%30.12 "Hg3 mi
9:00 PM42 °FFog.6 mph85%30.14 "Hg3 mi
8:00 PM43 °FFog.6 mph84%30.16 "Hg3 mi
7:00 PM43 °FFog.6 mph83%30.18 "Hg3 mi
6:00 PM44 °FFog.6 mph81%30.18 "Hg3 mi
5:00 PM43 °FFog.5 mph81%30.19 "Hg3 mi
3:00 PM44 °FFog.5 mph80%30.22 "Hg3 mi
2:00 PM44 °FOvercast.5 mph81%30.22 "Hg4 mi
1:00 PM43 °FLight rain. Overcast.5 mph83%30.23 "Hg3 mi
12:00 PM42 °FFog.6 mph83%30.24 "Hg3 mi
11:00 AM42 °FFog.6 mph83%30.27 "Hg3 mi
10:00 AM41 °FOvercast.5 mph86%30.27 "Hg3 mi
9:00 AM40 °FFog.6 mph86%30.28 "Hg4 mi
8:00 AM40 °FOvercast.6 mph88%30.28 "Hg4 mi
7:00 AM40 °FOvercast.5 mph88%30.27 "Hg4 mi
6:00 AM40 °FLight rain. Overcast.6 mph90%30.26 "Hg3 mi
5:00 AM40 °FLight rain. Overcast.5 mph86%30.27 "Hg3 mi
Weather by CustomWeather, © 2014

See weather overviewHow to use our weather pages